Weather in Esbjerg

Denmark     55°28′46″N   8°27′56″E
temp.,
°C
wind,
m/s
gust,
m/s
humid.,
%
clouds,
%
prec.,
mm/h
press.,
hPa
HPBL,
m
2 march, tue
tue201:00+3nw23940 0.0 103528
04:00+2nw23970 0.0 103430
07:00+2nw23966 0.0 103422
10:00+5wnw22882 0.0 1034164
13:00+7w22751 0.0 1034255
16:00+7wnw22760 0.0 1032202
19:00+4n22860 0.0 103222
22:00+4ne22840 0.0 103122
3 march, wed
wed301:00+3e23860 0.0 103122
04:00+3sse22880 0.0 102822
07:00+2s11890 0.0 102722
10:00+6ssw22810 0.0 1026164
13:00+8w33740 0.0 1025357
16:00+6nw57740 0.0 1023368
19:00+3wnw59930 0.0 1022275
22:00+3wnw712921 0.0 1021408
4 march, thu
thu401:00+4wnw8149210 0.0 1019456
04:00+4wnw8148825 0.0 1018491
07:00+3n489231 0.0 1018211
10:00+4ne6107997 0.0 1019620
13:00+4ne576696 0.0 1020668
16:00+5nne685222 0.0 1020895
19:00+1n596311 0.0 1022292
22:000nne59690 0.0 1023325
5 march, fri
fri501:00−1n35690 0.0 1024168
04:000n34680 0.0 1024120
07:000n23750 0.0 102581
10:00+3n34620 0.0 1027590
13:00+5nnw34430 0.0 10291363
16:00+4nnw45500 0.0 10291248
19:00+1nw45750 0.0 1031118
22:00+1w46790 0.0 1032137
6 march, sat
sat601:00+1w589710 0.0 1032336
04:00+3wnw71292100 1.8 1030584
07:00+3wnw7138698 1.8 1030531
10:00+4wnw8128039 0.1 1030876
13:00+4wnw9127468 0.1 1030907
16:00+4wnw9137864 0.0 1029814
19:00+3wnw9158270 0.0 1028628
22:00+4wnw9138383 0.0 1027621